Location: Spring Creek
(38.2870°N, 100.2160°W)
Time: 09:18:59
(UTC+00:00)

IRS-1D - Pass Details

Date: 08 May 2021
Orbit: 741 x 816 km, 98.6° (Epoch: 18 June)

Event Time Altitude Azimuth Distance (km) Brightness Sun altitude
Rises 09:11:18 0° 11° (N) 3,334 7.8 -23.8°
Reaches altitude 10° 09:13:39 10° 9° (N) 2,405 6.8 -23.5°
Maximum altitude 09:18:58 75° 286° (WNW) 848 3.5 -22.8°
Enters shadow 09:20:12 53° 218° (SW) 994 3.6 -22.7°
